Flag for Pakistan Weather past 2 weeks in Jhelum, Pakistan

Now
79 °F

Thundershowers. Partly cloudy.


Feels Like: 82 °F
Forecast: 79 / 91 °F
Wind: 12 mph from East

Location: Islamabad Airport

Current Time: Aug 2, 2015 at 10:27:57 PM

Latest Report: Aug 2, 2015 at 10:00 PM


Visibility: 4 mi

Pressure: 29.74 "Hg

Humidity: 79%

Dew point: 72 °F

Location of JhelumLocation

Historic Weather in Jhelum — Graph

°F

Jhelum temperature yesterday

Maximum temperature yesterday: 86 °F (at 2:00 PM)
Minimum temperature yesterday: 77 °F (at 4:00 AM)
Average temperature yesterday: 81 °F

Past Weeks' High & Low Weather Summary

 TemperatureHumidityPressure
High95 °F (Jul 20, 2:00 PM)100% (Jul 19, 5:00 AM)30.01 "Hg (Jul 19, 5:00 AM)
Low68 °F (Jul 23, 1:00 PM)47% (Jul 27, 3:00 PM)29.50 "Hg (Jul 19, 6:00 PM)
Average83 °F76%29.64 "Hg
* Reported Jul 18 9:00 PM — Aug 2 9:00 PM, Jhelum, Weather by CustomWeather, © 2015

Note: Actual official high and low records may vary slightly from our data, if they occured in-between our weather recording intervals... More about our weather records

Advertising

Jhelum weather history for previous 24 hours

 ConditionsComfort  
Time TempWeatherWind HumidityBarometerVisibility
9:00 PM
Sun, Aug 2
79 °FThundershowers. Partly cloudy.7 mph79%29.74 "Hg4 mi
8:00 PM79 °FPartly cloudy.12 mph79%29.74 "Hg4 mi
6:00 PM79 °FBroken clouds.14 mph79%29.71 "Hg2 mi
5:00 PM81 °FBroken clouds.18 mph79%29.71 "Hg2 mi
4:00 PM82 °FBroken clouds.14 mph79%29.71 "Hg2 mi
3:30 PM88 °FRain. Broken clouds.28 mph70%29.68 "Hg2 mi
3:00 PM88 °FBroken clouds.14 mph70%29.68 "Hg2 mi
2:00 PM88 °FScattered clouds.14 mph70%29.71 "Hg2 mi
1:00 PM88 °FScattered clouds.5 mph70%29.71 "Hg2 mi
12:30 PM84 °FBroken clouds.5 mph74%29.74 "Hg2 mi
12:00 PM84 °FBroken clouds.5 mph74%29.74 "Hg2 mi
11:00 AM84 °FBroken clouds.5 mph74%29.77 "Hg2 mi
9:30 AM82 °FBroken clouds.5 mph79%29.77 "Hg2 mi
8:30 AM81 °FFog.5 mph84%29.74 "Hg2 mi
8:00 AM81 °FFog.5 mph84%29.74 "Hg2 mi
7:00 AM79 °FFog.5 mph79%29.74 "Hg2 mi
5:00 AM77 °FFog.7 mph83%29.71 "Hg2 mi
4:00 AM77 °FFog.9 mph83%29.71 "Hg2 mi
3:00 AM77 °FFog.7 mph89%29.71 "Hg2 mi
2:00 AM79 °FFog.7 mph84%29.71 "Hg2 mi
1:00 AM79 °FFog.7 mph84%29.71 "Hg2 mi
12:00 AM81 °FPartly cloudy.7 mph79%29.71 "Hg2 mi
11:30 PM
Sat, Aug 1
81 °FPartly cloudy.7 mph79%29.71 "Hg2 mi
11:00 PM81 °FPartly cloudy.7 mph79%29.71 "Hg2 mi
10:30 PM81 °FPartly cloudy.7 mph79%29.71 "Hg2 mi
10:00 PM81 °FPartly cloudy.7 mph79%29.71 "Hg2 mi
Weather by CustomWeather, © 2015

See weather overviewHow to use our weather pages